User: anonymous   Login
Location: Kailua
(21.4020°N, 157.7390°W)
Time: 17:09:26
(UTC-10:00)
Language:

Cosmos 2221 Rocket - Orbit

View from above orbital plane
View from above orbital plane
View from above satellite
View from above satellite

Ground track
Ground track

The orbit data is extracted from the following two-line orbital elements,

1 22237U 92080B   15087.20308720  .00000452  00000-0  59190-4 0  9997
2 22237 082.5133 152.9666 0019270 344.8404 067.2306 14.78094093203487
Epoch (UTC): 28 March 2015 04:52:26
Eccentricity: 0.0019270
inclination: 82.5133°
perigee height: 622 km
apogee height: 649 km
right ascension of ascending node: 152.9666°
argument of perigee: 344.8404°
revolutions per day: 14.78094093
mean anomaly at epoch: 67.2306°
orbit number at epoch: 20348

The dashed part of the orbit path shows where the satellite is in the earth's shadow,  

DLR